Flag for Guernsey Weather past 2 weeks in St. Peter Port, Guernsey

Now
59 °F

Passing clouds.


Feels Like: 57 °F
Forecast: 55 / 63 °F
Wind: 10 mph from Northwest

Location: Guernsey Airport

Current Time: Sep 2, 2015 at 2:46:43 PM

Latest Report: Sep 2, 2015 at 2:20 PM


Visibility: N/A

Pressure: 30.09 "Hg

Humidity: 72%

Dew point: 50 °F

Location of St. Peter PortLocation

Historic Weather in St. Peter Port — Graph

°F

St. Peter Port temperature yesterday

Maximum temperature yesterday: 63 °F (at 1:50 PM)
Minimum temperature yesterday: 57 °F (at 3:50 AM)
Average temperature yesterday: 60 °F

Past Weeks' High & Low Weather Summary

 TemperatureHumidityPressure
High73 °F (Aug 21, 4:50 PM)100% (Aug 19, 3:50 AM)30.18 "Hg (Aug 19, 3:50 AM)
Low54 °F (Sep 2, 4:50 AM)60% (Aug 18, 2:20 PM)29.36 "Hg (Aug 24, 6:20 AM)
Average61 °F88%29.93 "Hg
* Reported Aug 18 1:20 PM — Sep 2 1:50 PM, St. Peter Port, Weather by CustomWeather, © 2015

Note: Actual official high and low records may vary slightly from our data, if they occured in-between our weather recording intervals... More about our weather records

Advertising

St. Peter Port weather history for previous 24 hours

 ConditionsComfort  
Time TempWeatherWind HumidityBarometerVisibility
1:50 PM
Wed, Sep 2
61 °FPassing clouds.10 mph72%30.09 "HgN/A
1:20 PM61 °FPassing clouds.12 mph72%30.09 "HgN/A
12:50 PM61 °FPassing clouds.12 mph68%30.12 "HgN/A
12:20 PM61 °FPassing clouds.12 mph68%30.12 "HgN/A
11:50 AM59 °FPassing clouds.10 mph72%30.12 "HgN/A
11:20 AM61 °FPassing clouds.9 mph68%30.12 "HgN/A
10:50 AM59 °FPassing clouds.9 mph72%30.12 "HgN/A
10:20 AM59 °FPassing clouds.8 mph72%30.12 "HgN/A
9:50 AM59 °FPassing clouds.7 mph72%30.12 "HgN/A
9:20 AM59 °FScattered clouds.7 mph77%30.12 "HgN/A
8:50 AM59 °FPassing clouds.6 mph72%30.12 "HgN/A
8:20 AM57 °FPassing clouds.5 mph77%30.12 "HgN/A
7:50 AM57 °FScattered clouds.3 mph82%30.12 "HgN/A
7:20 AM54 °FPassing clouds.6 mph88%30.09 "HgN/A
6:50 AM54 °FPassing clouds.7 mph82%30.09 "HgN/A
6:20 AM54 °FPassing clouds.6 mph82%30.09 "HgN/A
5:50 AM54 °FPassing clouds.6 mph82%30.09 "HgN/A
5:20 AM54 °FPassing clouds.6 mph82%30.09 "HgN/A
4:50 AM54 °FPassing clouds.6 mph88%30.12 "HgN/A
4:20 AM55 °FPassing clouds.7 mph82%30.12 "HgN/A
3:50 AM55 °FPassing clouds.7 mph82%30.12 "HgN/A
9:20 PM
Tue, Sep 1
57 °FPassing clouds.7 mph77%30.15 "HgN/A
8:50 PM57 °FPassing clouds.10 mph77%30.15 "HgN/A
8:20 PM57 °FPassing clouds.8 mph77%30.15 "HgN/A
7:50 PM57 °FPassing clouds.9 mph77%30.15 "HgN/A
7:20 PM59 °FPassing clouds.10 mph77%30.15 "HgN/A
6:50 PM61 °FPassing clouds.12 mph72%30.15 "HgN/A
6:20 PM61 °FPassing clouds.12 mph77%30.15 "HgN/A
5:50 PM61 °FPassing clouds.14 mph77%30.15 "HgN/A
5:20 PM63 °FPassing clouds.14 mph73%30.15 "HgN/A
4:50 PM63 °FPassing clouds.14 mph73%30.15 "HgN/A
4:20 PM63 °FPassing clouds.15 mph73%30.15 "HgN/A
3:50 PM63 °FPassing clouds.13 mph73%30.15 "HgN/A
3:20 PM63 °FPassing clouds.15 mph73%30.15 "HgN/A
2:50 PM63 °FPassing clouds.12 mph68%30.15 "HgN/A
2:20 PM63 °FPassing clouds.10 mph73%30.15 "HgN/A
Weather by CustomWeather, © 2015

See weather overviewHow to use our weather pages